KLM249 EHAM-ENBR

Flight info

Callsign KLM249
Flight time 1h 17m
Altitude 35000
Route ANDIK N873 REXMI/N0482F360 DCT KARLI DCT ALUVA
Aircraft B77W/H-SDE1E2E3FGHIJ2J3J4J5M1RWXY/LB1D1

Departure

Time 2026-05-06 19:14
Airport Amsterdam Airport Schiphol (EHAM)

Arrival

Time 2026-05-06 20:31
Airport Bergen Airport, Flesland (ENBR)
Time Latitude Longitude Altitude Speed Heading
2026-05-06 18:54 52.31402 4.77050 9 ft 0 kts 302°
2026-05-06 19:01 52.31401 4.77051 9 ft 0 kts 302°
2026-05-06 19:01 52.31392 4.77073 10 ft 3 kts 302°
2026-05-06 19:01 52.31383 4.77099 10 ft 3 kts 302°
2026-05-06 19:02 52.31371 4.77123 11 ft 3 kts 330°
2026-05-06 19:02 52.31353 4.77133 12 ft 3 kts
2026-05-06 19:02 52.31339 4.77128 10 ft 0 kts 26°
2026-05-06 19:04 52.31340 4.77128 10 ft 1 kts 26°
2026-05-06 19:05 52.31355 4.77144 10 ft 4 kts 34°
2026-05-06 19:05 52.31397 4.77172 10 ft 7 kts 13°
2026-05-06 19:05 52.31444 4.77188 11 ft 7 kts
2026-05-06 19:05 52.31493 4.77196 11 ft 7 kts
2026-05-06 19:06 52.31544 4.77172 13 ft 10 kts 317°
2026-05-06 19:06 52.31566 4.77034 15 ft 15 kts 272°
2026-05-06 19:06 52.31562 4.76852 16 ft 21 kts 268°
2026-05-06 19:06 52.31554 4.76600 19 ft 22 kts 266°
2026-05-06 19:07 52.31546 4.76351 26 ft 20 kts 267°
2026-05-06 19:07 52.31539 4.76125 22 ft 20 kts 267°
2026-05-06 19:07 52.31532 4.75899 25 ft 20 kts 266°
2026-05-06 19:07 52.31522 4.75659 16 ft 22 kts 266°
2026-05-06 19:08 52.31513 4.75413 16 ft 22 kts 266°
2026-05-06 19:08 52.31505 4.75166 15 ft 22 kts 266°
2026-05-06 19:08 52.31497 4.74920 19 ft 22 kts 267°
2026-05-06 19:08 52.31489 4.74674 20 ft 19 kts 267°
2026-05-06 19:09 52.31484 4.74547 22 ft 10 kts 266°
2026-05-06 19:09 52.31480 4.74433 24 ft 11 kts 266°
2026-05-06 19:09 52.31475 4.74293 17 ft 14 kts 266°
2026-05-06 19:09 52.31427 4.74166 24 ft 14 kts 212°
2026-05-06 19:10 52.31333 4.74133 20 ft 14 kts 184°
2026-05-06 19:10 52.31234 4.74123 18 ft 15 kts 182°
2026-05-06 19:10 52.31131 4.74116 17 ft 15 kts 182°
2026-05-06 19:10 52.31028 4.74105 16 ft 15 kts 184°
2026-05-06 19:11 52.30925 4.74093 16 ft 15 kts 183°
2026-05-06 19:11 52.30822 4.74084 16 ft 15 kts 183°
2026-05-06 19:11 52.30719 4.74074 17 ft 15 kts 183°
2026-05-06 19:11 52.30616 4.74067 20 ft 15 kts 182°
2026-05-06 19:12 52.30513 4.74058 19 ft 15 kts 183°
2026-05-06 19:12 52.30409 4.74048 20 ft 15 kts 183°
2026-05-06 19:12 52.30308 4.74013 24 ft 15 kts 204°
2026-05-06 19:12 52.30233 4.73947 21 ft 7 kts 210°
2026-05-06 19:13 52.30202 4.73884 20 ft 7 kts 241°
2026-05-06 19:13 52.30230 4.73759 19 ft 17 kts 333°
2026-05-06 19:13 52.30288 4.73743 17 ft 0 kts
2026-05-06 19:13 52.30491 4.73764 20 ft 67 kts
2026-05-06 19:14 52.31199 4.73828 24 ft 134 kts
2026-05-06 19:14 52.32293 4.73938 155 ft 172 kts
2026-05-06 19:14 52.33578 4.74053 480 ft 195 kts
2026-05-06 19:14 52.34926 4.74446 1042 ft 197 kts 28°
2026-05-06 19:15 52.36116 4.75507 1758 ft 200 kts 28°
2026-05-06 19:15 52.37435 4.76570 2047 ft 223 kts 30°
2026-05-06 19:15 52.38654 4.78218 2522 ft 234 kts 47°
2026-05-06 19:15 52.39796 4.80203 3180 ft 242 kts 45°
2026-05-06 19:16 52.40982 4.82177 3985 ft 245 kts 45°
2026-05-06 19:16 52.42193 4.84185 4755 ft 249 kts 44°
2026-05-06 19:16 52.43609 4.85834 5351 ft 256 kts 21°
2026-05-06 19:16 52.45351 4.86235 6186 ft 254 kts 360°
2026-05-06 19:17 52.47128 4.86056 6913 ft 258 kts 359°
2026-05-06 19:17 52.48946 4.85880 7576 ft 264 kts 358°
2026-05-06 19:17 52.50806 4.85699 8189 ft 272 kts 357°
2026-05-06 19:17 52.52720 4.85615 8798 ft 274 kts
2026-05-06 19:18 52.54509 4.86731 9376 ft 281 kts 36°
2026-05-06 19:18 52.55867 4.89064 9965 ft 287 kts 51°
2026-05-06 19:18 52.57119 4.91715 10282 ft 304 kts 51°
2026-05-06 19:18 52.58462 4.94534 10463 ft 328 kts 51°
2026-05-06 19:19 52.59936 4.97636 10652 ft 352 kts 51°
2026-05-06 19:19 52.61466 5.00854 11052 ft 368 kts 50°
2026-05-06 19:19 52.63062 5.04214 11732 ft 377 kts 50°
2026-05-06 19:19 52.64693 5.07648 12577 ft 383 kts 51°
2026-05-06 19:20 52.66351 5.11142 13411 ft 392 kts 50°
2026-05-06 19:20 52.68050 5.14727 14183 ft 399 kts 50°
2026-05-06 19:20 52.69770 5.18359 14949 ft 405 kts 50°
2026-05-06 19:20 52.71509 5.22031 15832 ft 408 kts 50°
2026-05-06 19:21 52.73246 5.25706 16685 ft 412 kts 50°
2026-05-06 19:21 52.75044 5.29473 17551 ft 416 kts 50°
2026-05-06 19:21 52.76860 5.33183 18221 ft 424 kts 49°
2026-05-06 19:21 52.78724 5.36979 18943 ft 428 kts 50°
2026-05-06 19:22 52.80586 5.40873 19583 ft 434 kts 51°
2026-05-06 19:22 52.82443 5.44835 20302 ft 438 kts 51°
2026-05-06 19:22 52.84311 5.48848 20964 ft 443 kts 51°
2026-05-06 19:22 52.86203 5.52920 21619 ft 448 kts 51°
2026-05-06 19:23 52.88121 5.57045 22196 ft 455 kts 52°
2026-05-06 19:23 52.90061 5.61218 22801 ft 460 kts 52°
2026-05-06 19:23 52.92025 5.65441 23452 ft 465 kts 52°
2026-05-06 19:23 52.94008 5.69710 23989 ft 469 kts 52°
2026-05-06 19:24 52.96004 5.74016 24534 ft 472 kts 52°
2026-05-06 19:24 52.98010 5.78346 25087 ft 475 kts 52°
2026-05-06 19:24 53.00026 5.82710 25620 ft 478 kts 52°
2026-05-06 19:24 53.02029 5.87051 26121 ft 481 kts 52°
2026-05-06 19:25 53.04072 5.91487 26603 ft 485 kts 52°
2026-05-06 19:25 53.06128 5.95960 27078 ft 488 kts 52°
2026-05-06 19:25 53.08203 6.00478 27557 ft 492 kts 52°
2026-05-06 19:25 53.10280 6.05012 28027 ft 495 kts 52°
2026-05-06 19:26 53.12380 6.09596 28370 ft 500 kts 52°
2026-05-06 19:26 53.14503 6.14223 28743 ft 503 kts 52°
2026-05-06 19:26 53.16630 6.18864 29217 ft 505 kts 52°
2026-05-06 19:26 53.18760 6.23521 29622 ft 507 kts 52°
2026-05-06 19:27 53.20903 6.28215 29995 ft 509 kts 52°
2026-05-06 19:27 53.23046 6.32921 30401 ft 509 kts 52°
2026-05-06 19:27 53.25179 6.37615 30874 ft 506 kts 52°
2026-05-06 19:27 53.27303 6.42298 31379 ft 503 kts 52°
2026-05-06 19:28 53.29412 6.46956 31856 ft 502 kts 52°
2026-05-06 19:28 53.31513 6.51605 32274 ft 500 kts 52°
2026-05-06 19:28 53.33622 6.56242 32694 ft 499 kts 51°
2026-05-06 19:28 53.35852 6.60586 33088 ft 498 kts 45°
2026-05-06 19:29 53.38350 6.64573 33510 ft 495 kts 41°
2026-05-06 19:29 53.40924 6.68415 33914 ft 494 kts 40°
2026-05-06 19:29 53.43490 6.72242 34191 ft 494 kts 41°
2026-05-06 19:29 53.46062 6.76137 34377 ft 497 kts 41°
2026-05-06 19:30 53.48619 6.80066 34620 ft 497 kts 42°
2026-05-06 19:30 53.51164 6.84004 34844 ft 498 kts 42°
2026-05-06 19:30 53.53718 6.87975 34894 ft 502 kts 42°
2026-05-06 19:31 53.58871 6.95858 34941 ft 502 kts 39°
2026-05-06 19:31 53.66880 7.07027 34942 ft 495 kts 39°
2026-05-06 19:32 53.72146 7.14491 34946 ft 495 kts 39°
2026-05-06 19:32 53.77445 7.22101 34952 ft 502 kts 39°
2026-05-06 19:33 53.82775 7.29786 34951 ft 504 kts 37°
2026-05-06 19:33 53.88635 7.36213 34941 ft 502 kts 26°
2026-05-06 19:34 53.93978 7.40128 34960 ft 504 kts 16°
2026-05-06 19:34 54.00814 7.42799 34956 ft 505 kts
2026-05-06 19:35 54.07781 7.44858 34960 ft 508 kts
2026-05-06 19:35 54.14740 7.47048 34956 ft 508 kts
2026-05-06 19:36 54.21673 7.49265 34954 ft 505 kts
2026-05-06 19:36 54.28573 7.51456 34968 ft 503 kts
2026-05-06 19:37 54.35408 7.53628 34958 ft 501 kts
2026-05-06 19:37 54.42263 7.55816 34963 ft 500 kts
2026-05-06 19:38 54.49108 7.58010 34964 ft 500 kts
2026-05-06 19:38 54.55955 7.60213 34977 ft 500 kts
2026-05-06 19:39 54.62803 7.62424 34971 ft 501 kts
2026-05-06 19:39 54.69670 7.64648 34971 ft 502 kts
2026-05-06 19:40 54.76543 7.66888 34976 ft 503 kts
2026-05-06 19:40 54.83431 7.69144 34982 ft 504 kts
2026-05-06 19:41 54.90335 7.71412 34972 ft 505 kts
2026-05-06 19:41 54.97208 7.73189 34967 ft 498 kts 355°
2026-05-06 19:42 55.00615 7.72482 34987 ft 491 kts 343°
2026-05-06 19:42 55.03848 7.70656 34989 ft 486 kts 332°
2026-05-06 19:42 55.09590 7.64729 34996 ft 476 kts 324°
2026-05-06 19:43 55.15185 7.58628 34988 ft 473 kts 324°
2026-05-06 19:43 55.20785 7.52599 34989 ft 472 kts 324°
2026-05-06 19:44 55.26393 7.46601 35001 ft 472 kts 324°
2026-05-06 19:44 55.32005 7.40599 35016 ft 473 kts 324°
2026-05-06 19:45 55.37603 7.34584 35073 ft 476 kts 324°
2026-05-06 19:45 55.40432 7.31535 35208 ft 475 kts 324°
2026-05-06 19:45 55.43247 7.28497 35345 ft 474 kts 324°
2026-05-06 19:46 55.46062 7.25455 35477 ft 473 kts 324°
2026-05-06 19:46 55.48867 7.22417 35591 ft 473 kts 324°
2026-05-06 19:46 55.51677 7.19370 35705 ft 473 kts 324°
2026-05-06 19:46 55.54480 7.16324 35850 ft 472 kts 324°
2026-05-06 19:47 55.60079 7.10224 36002 ft 473 kts 324°
2026-05-06 19:47 55.65744 7.04367 36015 ft 479 kts 330°
2026-05-06 19:48 55.72104 7.00240 36033 ft 495 kts 340°
2026-05-06 19:48 55.78804 6.96969 36030 ft 503 kts 341°
2026-05-06 19:49 55.85563 6.93678 36032 ft 509 kts 340°
2026-05-06 19:49 55.92417 6.90265 36029 ft 513 kts 340°
2026-05-06 19:50 55.99291 6.86791 36026 ft 514 kts 340°
2026-05-06 19:50 56.06176 6.83290 36022 ft 513 kts 340°
2026-05-06 19:51 56.13042 6.79788 36060 ft 512 kts 340°
2026-05-06 19:51 56.19876 6.76292 36032 ft 509 kts 340°
2026-05-06 19:52 56.26675 6.72802 36030 ft 506 kts 340°
2026-05-06 19:52 56.33438 6.69316 36027 ft 504 kts 340°
2026-05-06 19:53 56.45452 6.63090 36043 ft 502 kts 340°
2026-05-06 19:53 56.52183 6.59583 36035 ft 502 kts 340°
2026-05-06 19:54 56.58897 6.56073 36035 ft 503 kts 340°
2026-05-06 19:54 56.65634 6.52538 36035 ft 503 kts 340°
2026-05-06 19:55 56.72330 6.49012 36041 ft 504 kts 340°
2026-05-06 19:55 56.79080 6.45445 36040 ft 504 kts 340°
2026-05-06 19:56 56.90394 6.39436 36035 ft 504 kts 340°
2026-05-06 19:56 56.97286 6.35756 36060 ft 504 kts 339°
2026-05-06 19:57 57.04015 6.32150 36039 ft 503 kts 339°
2026-05-06 19:57 57.10729 6.28538 36032 ft 502 kts 339°
2026-05-06 19:58 57.17434 6.24918 36034 ft 501 kts 339°
2026-05-06 19:58 57.24089 6.21310 36055 ft 501 kts 339°
2026-05-06 19:59 57.30782 6.17668 36046 ft 501 kts 339°
2026-05-06 19:59 57.37461 6.14020 36040 ft 500 kts 339°
2026-05-06 20:00 57.44146 6.10354 36043 ft 500 kts 339°
2026-05-06 20:00 57.50785 6.06701 36074 ft 500 kts 339°
2026-05-06 20:01 57.57467 6.03009 36045 ft 500 kts 339°
2026-05-06 20:01 57.64139 5.99309 36053 ft 500 kts 339°
2026-05-06 20:02 57.70809 5.95597 36042 ft 499 kts 339°
2026-05-06 20:02 57.81450 5.89644 36066 ft 497 kts 339°
2026-05-06 20:03 57.88032 5.85943 36049 ft 496 kts 339°
2026-05-06 20:03 57.94666 5.82198 36045 ft 496 kts 339°
2026-05-06 20:04 58.01265 5.78459 36046 ft 495 kts 339°
2026-05-06 20:04 58.07856 5.74710 36080 ft 494 kts 339°
2026-05-06 20:05 58.14408 5.70968 36046 ft 494 kts 339°
2026-05-06 20:05 58.20984 5.67199 36044 ft 493 kts 338°
2026-05-06 20:06 58.27561 5.63414 36043 ft 493 kts 338°
2026-05-06 20:06 58.34115 5.59628 36043 ft 492 kts 338°
2026-05-06 20:07 58.40670 5.55826 36050 ft 493 kts 338°
2026-05-06 20:07 58.47231 5.52007 36045 ft 492 kts 338°
2026-05-06 20:08 58.53784 5.48177 36053 ft 492 kts 338°
2026-05-06 20:08 58.60348 5.44706 36026 ft 494 kts 345°
2026-05-06 20:09 58.67114 5.43107 35924 ft 483 kts 349°
2026-05-06 20:09 58.70453 5.42458 35794 ft 479 kts 349°
2026-05-06 20:09 58.73766 5.41808 35582 ft 476 kts 348°
2026-05-06 20:10 58.77057 5.41140 35296 ft 475 kts 348°
2026-05-06 20:10 58.80337 5.40451 35101 ft 472 kts 348°
2026-05-06 20:10 58.83628 5.39741 34298 ft 480 kts 347°
2026-05-06 20:10 58.86957 5.39009 33443 ft 481 kts 347°
2026-05-06 20:11 58.90282 5.38276 32555 ft 480 kts 347°
2026-05-06 20:11 58.93606 5.37543 31750 ft 480 kts 347°
2026-05-06 20:11 58.96937 5.36808 30835 ft 481 kts 347°
2026-05-06 20:11 59.00261 5.36073 30110 ft 479 kts 347°
2026-05-06 20:12 59.03547 5.35351 29418 ft 473 kts 347°
2026-05-06 20:12 59.06770 5.34643 28793 ft 467 kts 347°
2026-05-06 20:12 59.09983 5.33934 28197 ft 462 kts 347°
2026-05-06 20:12 59.13168 5.33229 27595 ft 457 kts 347°
2026-05-06 20:13 59.16310 5.32530 27009 ft 452 kts 347°
2026-05-06 20:13 59.19422 5.31835 26410 ft 448 kts 347°
2026-05-06 20:13 59.22511 5.31144 25869 ft 444 kts 346°
2026-05-06 20:13 59.25569 5.30460 25284 ft 440 kts 346°
2026-05-06 20:14 59.28605 5.29777 24696 ft 437 kts 346°
2026-05-06 20:14 59.31609 5.29100 24133 ft 433 kts 346°
2026-05-06 20:14 59.34560 5.28434 23561 ft 430 kts 346°
2026-05-06 20:14 59.37517 5.27767 22906 ft 426 kts 346°
2026-05-06 20:15 59.40444 5.27106 22338 ft 421 kts 346°
2026-05-06 20:15 59.43345 5.26450 21791 ft 417 kts 346°
2026-05-06 20:15 59.46208 5.25802 21236 ft 413 kts 346°
2026-05-06 20:15 59.49046 5.25158 20695 ft 409 kts 346°
2026-05-06 20:16 59.51866 5.24515 20201 ft 405 kts 346°
2026-05-06 20:16 59.54659 5.23877 19652 ft 403 kts 346°
2026-05-06 20:16 59.57438 5.23241 19106 ft 400 kts 346°
2026-05-06 20:16 59.60194 5.22609 18578 ft 397 kts 346°
2026-05-06 20:17 59.62933 5.21982 18059 ft 394 kts 347°
2026-05-06 20:17 59.65646 5.21358 17357 ft 393 kts 347°
2026-05-06 20:17 59.68335 5.20733 16583 ft 394 kts 347°
2026-05-06 20:17 59.71062 5.20102 15825 ft 395 kts 347°
2026-05-06 20:18 59.73788 5.19474 15170 ft 393 kts 348°
2026-05-06 20:18 59.76504 5.18849 14572 ft 390 kts 348°
2026-05-06 20:18 59.79197 5.18230 14072 ft 387 kts 348°
2026-05-06 20:18 59.81846 5.17623 13702 ft 378 kts 348°
2026-05-06 20:19 59.84434 5.17028 13324 ft 369 kts 348°
2026-05-06 20:19 59.86923 5.16453 12975 ft 361 kts 348°
2026-05-06 20:19 59.89403 5.15874 12521 ft 357 kts 348°
2026-05-06 20:19 59.91864 5.15295 11962 ft 355 kts 349°
2026-05-06 20:20 59.94313 5.14718 11426 ft 353 kts 349°
2026-05-06 20:20 59.96748 5.14146 10910 ft 351 kts 350°
2026-05-06 20:20 59.99172 5.13576 10423 ft 349 kts 350°
2026-05-06 20:20 60.00769 5.13200 10112 ft 348 kts 351°
2026-05-06 20:21 60.03164 5.12639 9603 ft 346 kts 351°
2026-05-06 20:21 60.05547 5.12080 9103 ft 343 kts 351°
2026-05-06 20:21 60.08680 5.11344 8461 ft 340 kts 351°
2026-05-06 20:21 60.11014 5.10795 8104 ft 334 kts 351°
2026-05-06 20:22 60.12562 5.10430 7900 ft 329 kts 351°
2026-05-06 20:22 60.14819 5.09899 7542 ft 324 kts 351°
2026-05-06 20:22 60.17051 5.09370 7184 ft 322 kts 351°
2026-05-06 20:22 60.19289 5.08836 7148 ft 324 kts 351°
2026-05-06 20:23 60.21530 5.08302 7130 ft 324 kts 351°
2026-05-06 20:23 60.23727 5.07779 6991 ft 316 kts 351°
2026-05-06 20:23 60.25840 5.07282 6729 ft 299 kts 351°
2026-05-06 20:23 60.27894 5.06795 6453 ft 294 kts 351°
2026-05-06 20:24 60.29900 5.06316 6243 ft 287 kts 351°
2026-05-06 20:24 60.31872 5.05843 5954 ft 283 kts 351°
2026-05-06 20:24 60.33821 5.05375 5601 ft 279 kts 351°
2026-05-06 20:24 60.35705 5.04923 5024 ft 267 kts 351°
2026-05-06 20:25 60.37531 5.04488 4315 ft 262 kts 351°
2026-05-06 20:25 60.39351 5.04048 3622 ft 267 kts 352°
2026-05-06 20:25 60.41189 5.03605 3355 ft 264 kts 352°
2026-05-06 20:25 60.42992 5.03172 3138 ft 258 kts 352°
2026-05-06 20:26 60.44726 5.02780 3105 ft 242 kts 357°
2026-05-06 20:26 60.46281 5.03555 3101 ft 229 kts 36°
2026-05-06 20:26 60.47200 5.06136 3138 ft 229 kts 73°
2026-05-06 20:26 60.47528 5.09293 3165 ft 229 kts 79°
2026-05-06 20:27 60.47575 5.12454 3088 ft 218 kts 104°
2026-05-06 20:27 60.46834 5.14883 3106 ft 197 kts 143°
2026-05-06 20:27 60.45630 5.15911 3138 ft 185 kts 166°
2026-05-06 20:27 60.44395 5.16599 3115 ft 185 kts 168°
2026-05-06 20:28 60.43132 5.17131 2854 ft 187 kts 171°
2026-05-06 20:28 60.41892 5.17564 2572 ft 173 kts 172°
2026-05-06 20:28 60.40752 5.17952 2341 ft 159 kts 172°
2026-05-06 20:28 60.39705 5.18303 2141 ft 149 kts 171°
2026-05-06 20:29 60.38694 5.18648 1927 ft 144 kts 171°
2026-05-06 20:29 60.37739 5.18972 1734 ft 136 kts 171°
2026-05-06 20:29 60.36807 5.19286 1548 ft 136 kts 171°
2026-05-06 20:29 60.35871 5.19603 1366 ft 137 kts 171°
2026-05-06 20:30 60.34919 5.19926 1156 ft 139 kts 171°
2026-05-06 20:30 60.33014 5.20570 748 ft 139 kts 171°
2026-05-06 20:30 60.32046 5.20898 551 ft 141 kts 171°
2026-05-06 20:31 60.31080 5.21225 358 ft 139 kts 171°
2026-05-06 20:31 60.30136 5.21558 183 ft 137 kts 171°
2026-05-06 20:31 60.29299 5.21823 158 ft 82 kts 170°
2026-05-06 20:31 60.28983 5.21936 155 ft 24 kts 165°
2026-05-06 20:32 60.28924 5.22138 155 ft 0 kts 83°
2026-05-06 20:32 60.28925 5.22159 155 ft 8 kts 83°
2026-05-06 20:32 60.28926 5.22171 155 ft 0 kts 83°
2026-05-06 20:32 60.28926 5.22194 155 ft 10 kts 92°
2026-05-06 20:33 60.28865 5.22296 155 ft 13 kts 161°
2026-05-06 20:33 60.28780 5.22335 154 ft 13 kts 170°
2026-05-06 20:33 60.28699 5.22391 154 ft 13 kts 133°
2026-05-06 20:33 60.28631 5.22496 153 ft 13 kts 164°
2026-05-06 20:34 60.28569 5.22553 152 ft 9 kts 125°
2026-05-06 20:34 60.28568 5.22658 152 ft 0 kts 80°
2026-05-06 20:34 60.28569 5.22658 152 ft 0 kts 80°